Weather History for Valparaiso, FL

Change the Weather History Date:

Friday, March 1, 2013

  Actual Average Record
Temperature  
Mean Temperature 47 °F -  
Max Temperature 55 °F 67 °F 79 °F (1962)
Min Temperature 39 °F 41 °F 24 °F (1984)
Degree Days  
Heating Degree Days 18    
Moisture  
Dew Point 32 °F    
Average Humidity 57    
Maximum Humidity 77    
Minimum Humidity 36    
Precipitation  
Precipitation 0.00 in - - ()
Sea Level Pressure  
Sea Level Pressure 30.08 in    
Wind  
Wind Speed 8 mph (NW)    
Max Wind Speed 14 mph    
Max Gust Speed -    
Visibility 10 miles    
Events      
Averages and records for this station are not official NWS values.
T = Trace of Precipitation, MM = Missing Value Source: NWS Daily Summary

Daily Weather History Graph

Daily Weather History Graph

Search for Another Location

Airport:

Trip Planner

Search our weather history database for the weather conditions in past years. The results will help you decide how hot, cold, wet, or windy it might be!

Date:

Astronomy

Mar. 01, 2013 Rise Set
Actual Time 6:12 AM CST 5:45 PM CST
Civil Twilight 5:47 AM CST 6:09 PM CST
Nautical Twilight 5:20 AM CST 6:37 PM CST
Astronomical Twilight 4:52 AM CST 7:05 PM CST
Moon 9:54 PM CST (3/1) 8:18 AM CST (3/1)
Length of Visible Light 12h 21m
Length of Day
11h 33m
Waning Gibbous, 83% of the Moon is Illuminated
Mar 1
Waning Gibbous
Mar 4
Last Quarter
Mar 11
New
Mar 19
First Quarter
Mar 27
Full

Hourly Weather History & Observations

Time (CST) Temp. Windchill Dew Point Humidity Pressure Visibility Wind Dir Wind Speed Gust Speed Precip Events Conditions
12:55 AM 47.5 °F - 34.3 °F 60% 30.09 in 10.0 mi North 8.1 mph - N/A   Overcast
1:55 AM 46.0 °F 40.6 °F 30.9 °F 56% 30.08 in 10.0 mi North 11.5 mph - N/A   Overcast
2:55 AM 44.4 °F 40.0 °F 31.5 °F 60% 30.07 in 10.0 mi North 8.1 mph - N/A   Overcast
3:55 AM 41.4 °F 37.6 °F 30.9 °F 66% 30.06 in 10.0 mi North 5.8 mph - N/A   Mostly Cloudy
4:55 AM 41.4 °F 38.4 °F 31.5 °F 68% 30.08 in 10.0 mi NNW 4.6 mph - N/A   Mostly Cloudy
5:55 AM 40.3 °F 37.1 °F 31.6 °F 71% 30.10 in 10.0 mi NNW 4.6 mph - N/A   Mostly Cloudy
6:55 AM 39.9 °F 36.7 °F 31.6 °F 72% 30.11 in 10.0 mi NNW 4.6 mph - N/A   Mostly Cloudy
7:55 AM 42.4 °F 36.5 °F 29.7 °F 61% 30.13 in 10.0 mi NNW 10.4 mph - N/A   Mostly Cloudy
8:55 AM 45.0 °F 39.7 °F 28.0 °F 52% 30.13 in 10.0 mi North 10.4 mph - N/A   Overcast
9:55 AM 47.3 °F - 28.2 °F 48% 30.13 in 10.0 mi NNW 11.5 mph - N/A   Overcast
10:55 AM 49.1 °F - 29.1 °F 46% 30.12 in 10.0 mi NW 8.1 mph - N/A   Mostly Cloudy
11:55 AM 52.7 °F - 29.5 °F 41% 30.08 in 10.0 mi North 8.1 mph - N/A   Overcast
12:55 PM 54.0 °F - 29.3 °F 39% 30.06 in 10.0 mi West 10.4 mph - N/A   Mostly Cloudy
1:55 PM 53.2 °F - 29.1 °F 40% 30.05 in 10.0 mi West 9.2 mph - N/A   Mostly Cloudy
2:55 PM 54.3 °F - 29.8 °F 39% 30.03 in 10.0 mi NW 11.5 mph - N/A   Mostly Cloudy
3:55 PM 55.2 °F - 28.2 °F 36% 30.01 in 10.0 mi NW 8.1 mph - N/A   Mostly Cloudy
4:55 PM 52.5 °F - 36.0 °F 53% 30.02 in 10.0 mi WSW 5.8 mph - N/A   Mostly Cloudy
5:55 PM 50.9 °F - 36.0 °F 57% 30.03 in 10.0 mi WSW 5.8 mph - N/A   Mostly Cloudy
6:55 PM 46.2 °F 43.3 °F 36.7 °F 69% 30.05 in 10.0 mi WNW 5.8 mph - N/A   Scattered Clouds
7:55 PM 43.7 °F 40.3 °F 36.9 °F 77% 30.06 in 10.0 mi NW 5.8 mph - N/A   Scattered Clouds
8:55 PM 44.2 °F 40.3 °F 35.1 °F 70% 30.08 in 10.0 mi NNW 6.9 mph - N/A   Clear
9:55 PM 43.5 °F 37.9 °F 32.5 °F 65% 30.10 in 10.0 mi NNW 10.4 mph - N/A   Clear
10:55 PM 42.6 °F 35.6 °F 31.8 °F 66% 30.13 in 10.0 mi North 13.8 mph - N/A   Clear
11:55 PM 40.8 °F 33.3 °F 29.5 °F 64% 30.12 in 10.0 mi NNW 13.8 mph - N/A   Clear